This is the latest recevied weather packets stored in our database for station/object OK2IGL-6. If no packets are shown the sender has not sent any weather packets the latest 10 day(s).
| Time | Temp. | Humidity | Pressure | Rain* | Wind** | Luminosity | Snow |
|---|---|---|---|---|---|---|---|
| 1777744427 | 18.89° C | 54% | 1015 hPa | - | - | - | - |
| 1777743998 | 20° C | 50% | 1016 hPa | - | - | - | - |
| 1777743569 | 20.56° C | 48% | 1016 hPa | - | - | - | - |
| 1777743139 | 21.11° C | 41% | 1016 hPa | - | - | - | - |
| 1777742710 | 21.11° C | 41% | 1016 hPa | - | - | - | - |
| 1777742280 | 21.67° C | 40% | 1016 hPa | - | - | - | - |
| 1777741851 | 21.67° C | 40% | 1016 hPa | - | - | - | - |
| 1777741421 | 22.22° C | 39% | 1016 hPa | - | - | - | - |
| 1777740992 | 22.22° C | 37% | 1016 hPa | - | - | - | - |
| 1777740562 | 22.22° C | 36% | 1016 hPa | - | - | - | - |
| 1777740133 | 22.22° C | 36% | 1017 hPa | - | - | - | - |
| 1777739542 | 22.78° C | 36% | 1017 hPa | - | - | - | - |
| 1777739113 | 22.78° C | 35% | 1016 hPa | - | - | - | - |
| 1777738683 | 22.78° C | 35% | 1017 hPa | - | - | - | - |
| 1777738254 | 23.33° C | 36% | 1017 hPa | - | - | - | - |
| 1777737825 | 23.33° C | 34% | 1016 hPa | - | - | - | - |
| 1777737395 | 23.33° C | 34% | 1017 hPa | - | - | - | - |
| 1777736966 | 23.33° C | 33% | 1017 hPa | - | - | - | - |
| 1777736536 | 23.33° C | 35% | 1017 hPa | - | - | - | - |
| 1777736107 | 23.33° C | 34% | 1017 hPa | - | - | - | - |
| 1777735677 | 23.33° C | 34% | 1017 hPa | - | - | - | - |
| 1777735248 | 23.33° C | 33% | 1017 hPa | - | - | - | - |
| 1777734818 | 23.89° C | 35% | 1017 hPa | - | - | - | - |
| 1777734389 | 23.89° C | 33% | 1017 hPa | - | - | - | - |
| 1777733959 | 23.89° C | 33% | 1017 hPa | - | - | - | - |
* Rain since midnight (hover to see other rain measurements)
** Current wind speed in m/s (hover to see current wind gust speed)